Location: Unspecified
(36.5600°N, 136.6600°E)
Time: 19:00:42
(UTC+09:00)

BlueWalker 3 - Pass Details

Date: 24 June 2024
Orbit: 480 x 491 km, 53.2° (Epoch: 19 July)

Event Time Altitude Azimuth Distance (km) Brightness Sun altitude
Rises 03:24:18 0° 297° (WNW) 2,535 5.3 -12.5°
Reaches altitude 10° 03:26:56 10° 279° (W) 1,653 4.2 -12.1°
Maximum altitude 03:29:34 18° 234° (SW) 1,218 3.2 -11.7°
Enters shadow 03:30:03 18° 223° (SW) 1,235 3.3 -11.6°
Exits shadow 03:32:05 11° 190° (S) 1,617 4.1 -11.3°
Drops below altitude 10° 03:32:12 10° 188° (S) 1,649 4.1 -11.3°
Sets 03:34:49 0° 170° (S) 2,525 5.2 -10.9°
